GEFSMW_con_probscp_120.txt.gz
Probability
9 7 7 11 15 17 19 19 17 15 11 9 6 5 5 5 5 7 9 7 6 5 4 5 7 10 11 11 8 7 7 8 9 10 10 10 11 15 21 24 24 27 29
10 9 9 12 14 15 15 16 14 12 9 7 6 5 5 5 6 8 8 5 3 4 4 5 6 7 7 6 5 5 6 7 8 9 8 8 9 12 16 19 21 25 29
12 11 11 12 12 11 12 14 15 12 9 7 5 4 4 4 5 7 6 3 1 1 2 3 3 4 4 3 3 3 5 6 7 8 8 7 8 9 12 16 19 23 26
14 13 13 13 12 10 11 14 15 13 10 8 6 4 3 2 2 4 4 2 1 0 0 1 1 2 3 3 3 2 4 5 6 7 8 7 7 7 9 13 16 18 20
14 14 16 18 14 10 9 11 12 10 7 6 5 3 2 1 0 2 3 2 1 1 0 0 0 1 1 2 2 1 2 4 4 5 6 7 7 6 6 7 9 11 12
11 12 16 18 14 9 7 7 7 6 4 3 2 2 1 1 1 1 1 0 0 1 1 0 0 0 0 1 1 0 0 1 2 3 5 7 7 5 3 2 3 4 6
6 7 9 9 8 6 4 4 5 4 2 1 1 1 2 1 1 0 0 0 0 1 2 1 0 1 0 0 1 1 0 0 1 2 4 6 6 5 3 1 1 1 2
2 2 2 2 3 3 2 2 4 3 1 1 1 1 1 1 0 0 0 0 0 0 1 0 0 0 0 0 1 2 1 0 0 1 3 5 5 3 2 1 0 0 1
1 0 0 0 1 2 2 3 4 3 3 2 2 1 0 0 0 0 0 0 0 0 0 0 0 0 0 0 1 2 1 1 1 1 2 3 4 3 2 1 1 1 1
0 0 0 0 1 1 2 3 4 3 2 2 1 1 0 0 0 0 0 0 0 0 0 0 0 0 0 0 0 1 1 1 1 1 1 1 2 2 2 2 2 1 1
0 0 0 0 0 0 1 2 3 2 1 1 0 0 0 0 0 0 0 0 0 0 0 0 0 0 0 0 0 0 1 1 0 0 0 0 1 1 2 1 1 1 0
0 0 0 0 0 0 1 2 2 1 0 0 0 0 0 0 0 0 0 0 0 0 0 0 0 0 0 0 0 0 0 0 0 0 0 0 0 1 1 1 1 0 0
0 0 0 0 0 1 1 1 1 0 0 0 0 0 0 0 0 0 0 0 0 0 0 0 0 0 0 0 0 0 0 0 0 0 0 0 0 0 0 1 1 0 0
0 0 1 0 0 1 1 0 0 0 0 0 0 0 0 0 0 0 0 0 0 0 0 0 0 0 0 0 0 0 0 0 0 0 0 0 0 0 0 0 0 0 0
0 1 2 1 0 0 0 0 0 0 0 0 0 0 0 0 0 0 0 0 0 0 0 0 0 0 0 0 0 0 0 0 0 0 0 0 0 0 0 0 0 0 0
0 0 1 1 1 0 0 0 0 0 0 0 0 0 0 0 0 0 0 0 1 1 1 0 0 0 0 0 0 0 0 0 0 0 0 0 0 0 0 0 0 0 0
0 0 0 2 3 1 0 0 0 0 0 0 0 0 0 0 0 0 0 1 3 3 2 0 0 0 0 0 0 0 0 0 0 0 0 0 0 0 0 0 0 0 0
1 1 1 3 4 2 0 0 0 0 0 0 0 0 0 0 0 0 1 3 4 4 2 1 1 1 1 0 0 0 0 0 0 0 0 0 0 0 0 0 0 0 0
2 2 1 3 5 3 1 1 0 0 0 0 0 0 0 0 0 1 2 3 5 5 3 2 2 2 1 0 0 0 0 0 0 0 0 0 0 0 0 0 0 0 0
3 3 2 3 5 5 3 2 1 1 1 1 1 1 0 0 1 2 3 3 4 5 3 2 2 2 1 0 0 0 0 0 0 0 0 0 0 0 0 0 0 0 0
3 3 3 4 6 5 4 3 3 2 2 2 2 1 0 0 2 3 4 4 4 3 1 1 1 1 0 0 0 0 0 0 0 0 0 0 0 0 0 0 0 0 0
2 3 4 5 6 4 3 3 3 3 3 3 2 1 1 1 2 3 3 3 2 1 1 1 2 1 0 0 0 0 0 0 0 0 0 0 0 0 0 0 0 0 0
1 2 3 4 4 3 3 3 3 3 3 3 1 1 1 2 2 2 1 1 1 0 0 1 1 1 0 0 0 0 0 0 0 0 0 0 0 0 0 0 0 0 0
2 1 2 2 2 2 3 3 3 3 3 2 1 1 1 1 1 1 1 0 0 0 0 0 0 0 0 1 0 0 0 0 0 0 0 0 0 0 0 0 0 0 0
3 2 2 1 1 1 2 3 3 3 3 2 1 1 0 0 1 1 1 1 1 0 0 0 0 0 0 0 0 0 0 0 0 0 0 0 0 0 0 0 0 0 0
4 3 2 1 1 1 2 3 3 2 2 2 2 1 0 0 1 1 1 1 1 0 0 0 0 0 0 0 0 0 0 0 0 0 0 0 0 0 0 0 0 0 0

GEFSMW_con_probscp_126.txt.gz
Probability
0 1 1 1 1 1 0 0 0 0 0 0 0 0 0 0 0 0 0 0 1 2 2 2 2 1 0 1 2 3 3 2 1 0 0 0 0 0 0 0 0 0 1
0 1 1 0 0 0 0 0 0 0 0 0 0 0 0 0 0 0 0 0 0 1 1 1 1 0 0 0 1 2 3 2 1 0 0 0 0 0 0 1 1 1 1
1 1 1 0 0 0 0 0 0 0 0 0 0 0 0 0 0 0 0 0 0 0 0 0 0 0 0 0 0 1 1 1 1 0 0 0 0 0 0 1 2 2 1
1 1 1 0 0 0 0 0 0 0 0 0 0 0 0 0 0 0 0 0 0 0 0 0 0 0 0 0 0 0 0 0 0 0 0 0 0 0 0 1 1 1 1
1 1 1 0 0 0 0 0 0 0 0 0 0 0 0 0 0 0 0 0 0 0 0 0 0 0 0 0 0 0 0 0 0 0 0 0 0 0 0 0 0 0 0
3 2 0 0 0 0 0 0 0 0 0 0 0 0 0 0 0 0 0 0 0 0 0 0 0 0 0 0 0 0 0 0 0 0 0 0 0 0 0 0 0 0 0
5 2 0 0 0 0 0 0 0 0 0 0 0 0 0 0 0 0 0 0 0 0 0 0 0 0 0 0 0 0 0 0 0 0 0 0 0 0 0 0 0 0 0
4 1 0 0 0 0 0 0 0 0 0 0 0 0 0 0 0 0 0 0 0 0 0 0 0 0 0 0 0 0 0 0 0 0 0 0 0 0 0 0 0 0 0
1 0 0 0 0 0 0 0 0 0 0 0 0 0 0 0 0 0 0 0 0 0 0 0 0 0 0 0 0 0 0 0 0 0 0 0 0 0 0 0 0 0 0
0 0 0 0 0 0 0 0 0 0 0 0 0 0 0 0 0 0 0 0 0 0 0 0 0 0 0 0 0 0 0 0 0 0 0 0 0 0 0 0 0 0 0
0 0 0 0 0 0 0 0 0 0 0 0 0 0 0 0 0 0 0 0 0 0 0 0 0 0 0 0 0 0 0 0 0 0 0 0 0 0 0 0 0 0 0
0 0 0 0 0 0 0 0 0 0 0 0 0 0 0 0 0 0 0 0 0 0 0 0 0 0 0 0 0 0 0 0 0 0 0 0 0 0 0 0 0 0 0
0 0 0 0 0 0 0 0 0 0 0 0 0 0 0 0 0 0 0 0 0 0 0 0 0 0 0 0 0 0 0 0 0 0 0 0 0 0 0 0 0 0 0
0 0 0 0 0 0 0 0 0 0 0 0 0 0 0 0 0 0 0 0 0 0 0 0 0 0 0 0 0 0 0 0 0 0 0 0 0 0 0 0 0 0 0
0 0 0 0 0 0 0 0 0 0 0 0 0 0 0 0 0 0 0 0 0 0 0 0 0 0 0 0 0 0 0 0 0 0 0 0 0 0 0 0 0 0 0
0 0 0 0 0 0 0 0 0 0 0 0 0 0 0 0 0 0 0 0 0 0 0 0 0 0 0 0 0 0 0 0 0 0 0 0 0 0 0 0 0 0 0
0 0 0 0 0 0 0 0 0 0 0 0 0 0 0 0 0 0 0 0 0 0 0 0 0 0 0 0 0 0 0 0 0 0 0 0 0 0 0 0 0 0 0
0 0 0 0 0 0 0 0 0 0 0 0 0 0 0 0 0 0 0 0 0 0 0 0 0 0 0 0 0 0 0 0 0 0 0 0 0 0 0 0 0 0 0
0 0 0 0 0 0 0 0 0 0 0 0 0 0 0 0 0 0 0 0 0 0 0 0 0 0 0 0 0 0 0 0 0 0 0 0 0 0 0 0 0 0 0
0 0 0 0 0 0 0 0 0 0 0 0 0 0 0 0 0 0 0 0 0 0 0 0 0 0 0 0 0 0 0 0 0 0 0 0 0 0 0 0 0 0 0
0 0 0 0 0 0 0 0 0 0 0 0 0 0 0 0 0 0 0 0 0 0 0 0 0 0 0 0 0 0 0 0 0 0 0 0 0 0 0 0 0 0 0
0 0 0 0 0 0 0 0 0 0 0 0 0 0 0 0 0 0 0 0 0 0 0 0 0 0 0 0 0 0 0 0 0 0 0 0 0 0 0 0 0 0 0
0 0 0 0 0 0 0 0 0 0 0 0 0 0 0 0 0 0 0 0 0 0 0 0 0 0 0 0 0 0 0 0 0 0 0 0 0 0 0 0 0 0 0
0 0 0 0 0 0 0 0 0 0 0 0 0 0 0 0 0 0 0 0 0 0 0 0 0 0 0 0 0 0 0 0 0 0 0 0 0 0 0 0 0 0 0
0 0 0 0 0 0 0 0 0 0 0 0 0 0 0 0 0 0 0 0 0 0 0 0 0 0 0 0 0 0 0 0 0 0 0 0 0 0 0 0 0 0 0
0 0 0 0 0 0 0 0 0 0 0 0 0 0 0 0 0 0 0 0 0 0 0 0 0 0 0 0 0 0 0 0 0 0 0 0 0 0 0 0 0 0 0

GEFSMW_con_probscp_132.txt.gz
Probability
2 2 1 1 1 1 1 1 0 0 0 0 0 0 0 0 0 0 0 0 0 0 0 0 1 2 2 2 2 2 2 2 2 1 0 0 0 0 0 0 1 3 6
1 1 0 0 0 0 0 0 0 0 0 0 0 0 0 0 0 0 0 0 0 0 0 0 0 1 1 1 1 2 2 2 2 2 1 0 0 0 0 0 0 2 3
0 0 0 0 0 0 0 0 0 0 0 0 0 0 0 0 0 0 0 0 0 0 0 0 0 0 0 0 0 1 1 2 2 1 1 0 0 0 0 0 1 1 1
0 0 0 0 0 0 0 0 0 0 0 0 0 0 0 0 0 0 0 0 0 0 0 0 0 0 0 0 0 0 0 0 0 0 0 0 0 0 0 0 1 2 2
0 0 0 0 0 0 0 0 0 0 0 0 0 0 0 0 0 0 0 0 0 0 0 0 0 0 0 0 0 0 0 0 0 0 0 0 0 0 0 0 0 1 1
0 0 0 0 0 0 0 0 0 0 0 0 0 0 0 0 0 0 0 0 0 0 0 0 0 0 0 0 0 0 0 0 0 0 0 0 0 0 0 0 0 0 0
0 0 0 0 0 0 0 0 0 0 0 0 0 0 0 0 0 0 0 0 0 0 0 0 0 0 0 0 0 0 0 0 0 0 0 0 0 0 0 0 0 0 0
0 0 0 0 0 0 0 0 0 0 0 0 0 0 0 0 0 0 0 0 0 0 0 0 0 0 0 0 0 0 0 0 0 0 0 0 0 0 0 0 0 0 0
0 0 0 0 0 0 0 0 0 0 0 0 0 0 0 0 0 0 0 0 0 0 0 0 0 0 0 0 0 0 0 0 0 0 0 0 0 0 0 0 0 0 0
0 0 0 0 0 0 0 0 0 0 0 0 0 0 0 0 0 0 0 0 0 0 0 0 0 0 0 0 0 0 0 0 0 0 0 0 0 0 0 0 0 0 0
0 0 0 0 0 0 0 0 0 0 0 0 0 0 0 0 0 0 0 0 0 0 0 0 0 0 0 0 0 0 0 0 0 0 0 0 0 0 0 0 0 0 0
0 0 0 0 0 0 0 0 0 0 0 0 0 0 0 0 0 0 0 0 0 0 0 0 0 0 0 0 0 0 0 0 0 0 0 0 0 0 0 0 0 0 0
0 0 0 0 0 0 0 0 0 0 0 0 0 0 0 0 0 0 0 0 0 0 0 0 0 0 0 0 0 0 0 0 0 0 0 0 0 0 0 0 0 0 0
0 0 0 0 0 0 0 0 0 0 0 0 0 0 0 0 0 0 0 0 0 0 0 0 0 0 0 0 0 0 0 0 0 0 0 0 0 0 0 0 0 0 0
0 0 0 0 0 0 0 0 0 0 0 0 0 0 0 0 0 0 0 0 0 0 0 0 0 0 0 0 0 0 0 0 0 0 0 0 0 0 0 0 0 0 0
0 0 0 0 0 0 0 0 0 0 0 0 0 0 0 0 0 0 0 0 0 0 0 0 0 0 0 0 0 0 0 0 0 0 0 0 0 0 0 0 0 0 0
0 0 0 0 0 0 0 0 0 0 0 0 0 0 0 0 0 0 0 0 0 0 0 0 0 0 0 0 0 0 0 0 0 0 0 0 0 0 0 0 0 0 0
0 0 0 0 0 0 0 0 0 0 0 0 0 0 0 0 0 0 0 0 0 0 0 0 0 0 0 0 0 0 0 0 0 0 0 0 0 0 0 0 0 0 0
0 0 0 0 0 0 0 0 0 0 0 0 0 0 0 0 0 0 0 0 0 0 0 0 0 0 0 0 0 0 0 0 0 0 0 0 0 0 0 0 0 0 0
0 0 0 0 0 0 0 0 0 0 0 0 0 0 0 0 0 0 0 0 0 0 0 0 0 0 0 0 0 0 0 0 0 0 0 0 0 0 0 0 0 0 0
0 0 0 0 0 0 0 0 0 0 0 0 0 0 0 0 0 0 0 0 0 0 0 0 0 0 0 0 0 0 0 0 0 0 0 0 0 0 0 0 0 0 0
0 0 0 0 0 0 0 0 0 0 0 0 0 0 0 0 0 0 0 0 0 0 0 0 0 0 0 0 0 0 0 0 0 0 0 0 0 0 0 0 0 0 0
0 0 0 0 0 0 0 0 0 0 0 0 0 0 0 0 0 0 0 0 0 0 0 0 0 0 0 0 0 0 0 0 0 0 0 0 0 0 0 0 0 0 0
0 0 0 0 0 0 0 0 0 0 0 0 0 0 0 0 0 0 0 0 0 0 0 0 0 0 0 0 0 0 0 0 0 0 0 0 0 0 0 0 0 0 0
0 0 0 0 0 0 0 0 0 0 0 0 0 0 0 0 0 0 0 0 0 0 0 0 0 0 0 0 0 0 0 0 0 0 0 0 0 0 0 0 0 0 0
0 0 0 0 0 0 0 0 0 0 0 0 0 0 0 0 0 0 0 0 0 0 0 0 0 0 0 0 0 0 0 0 0 0 0 0 0 0 0 0 0 0 0

GEFSMW_con_probscp_138.txt.gz
Probability
5 4 3 3 3 3 4 3 2 2 1 2 2 1 0 0 0 0 0 0 0 0 0 0 0 0 1 2 2 2 2 3 4 6 6 5 5 5 5 5 5 5 4
4 3 3 3 3 3 2 2 1 1 0 1 1 0 0 0 0 0 0 0 0 0 0 0 0 0 0 1 1 1 1 2 3 4 4 4 5 5 4 4 5 6 6
3 3 3 3 3 2 1 0 0 0 0 0 0 0 0 0 0 0 0 0 0 0 0 0 0 0 0 0 0 0 1 1 1 1 2 3 4 4 3 3 4 6 7
3 3 3 3 2 1 0 0 0 0 0 0 0 0 0 0 0 0 0 0 0 0 0 0 0 0 0 0 0 0 1 0 0 1 1 2 3 3 2 2 2 4 5
3 3 2 2 1 0 0 0 0 0 0 0 0 0 0 0 0 0 0 0 0 0 0 0 0 0 0 0 0 1 1 0 0 1 1 1 1 2 2 1 1 1 2
2 1 1 1 0 0 0 0 0 0 0 0 0 0 0 0 0 0 0 0 0 0 0 0 0 0 0 0 0 1 0 0 1 1 0 0 0 1 1 1 1 2 2
1 1 1 0 0 0 0 0 0 0 0 0 0 0 0 0 0 0 0 0 0 0 0 0 0 0 0 0 0 0 0 1 2 1 1 0 0 0 0 0 1 1 1
1 2 2 1 0 0 0 0 0 0 0 0 0 0 0 0 0 0 0 0 0 0 0 0 0 0 0 0 0 0 0 1 1 1 1 1 0 0 0 0 0 0 0
3 3 2 1 0 0 0 0 0 0 0 0 0 0 0 0 0 0 0 0 0 0 0 0 0 0 0 0 0 0 0 0 0 0 0 0 0 0 0 0 0 0 0
3 3 2 1 0 0 0 0 0 0 0 0 0 0 0 0 0 0 0 0 0 0 0 0 0 0 0 0 0 0 0 0 0 0 0 0 0 0 0 0 0 0 0
3 3 2 1 0 0 0 0 0 0 0 0 0 0 0 0 0 0 0 0 0 0 0 0 0 0 0 0 0 0 0 0 0 0 0 0 0 0 0 0 0 0 0
3 2 1 0 0 1 1 2 1 1 0 0 0 0 0 0 0 0 0 0 0 0 0 0 0 0 0 0 0 0 0 0 0 0 0 0 0 0 0 0 0 0 0
3 2 2 2 2 2 3 3 3 2 1 0 0 0 0 0 1 1 1 1 1 0 0 0 0 0 0 0 0 0 0 0 0 0 0 0 0 0 0 0 0 0 0
4 4 5 5 4 3 3 3 3 2 1 0 0 0 0 1 2 2 2 2 2 1 0 0 0 0 0 0 0 0 0 0 0 0 0 0 0 0 0 0 0 0 0
8 8 9 9 6 4 3 3 3 3 1 1 0 0 0 1 3 3 3 3 3 1 0 0 0 0 0 0 0 0 0 0 0 0 0 0 0 0 0 0 0 0 0
10 11 12 12 9 5 4 3 3 3 3 2 1 0 1 2 3 3 3 3 3 2 1 0 0 0 0 0 0 0 0 0 0 0 0 0 0 0 0 0 0 0 0
10 12 13 12 9 5 3 3 3 3 3 3 2 2 2 3 3 3 3 3 3 2 1 0 0 0 0 0 0 0 0 0 0 0 0 0 0 0 0 0 0 0 0
11 11 10 8 6 5 4 3 2 2 3 3 3 3 3 3 3 3 3 3 2 2 1 0 0 0 0 0 0 0 0 0 0 0 0 0 0 0 0 0 0 0 0
10 8 6 3 3 5 5 3 2 2 3 4 4 3 3 2 2 2 2 1 1 1 0 0 0 0 0 0 0 0 0 0 0 0 0 0 0 0 0 0 0 0 0
8 6 3 2 3 5 5 4 2 3 4 5 5 3 2 1 1 1 1 0 0 1 1 1 1 1 0 0 0 0 0 0 0 0 0 0 0 0 0 0 0 0 0
9 7 4 3 5 7 6 5 3 3 4 5 4 3 2 1 0 1 2 1 1 2 2 2 2 1 0 0 0 0 0 0 0 0 0 0 0 0 0 0 0 0 0
10 9 7 7 8 9 7 5 4 3 3 4 4 3 2 1 0 1 2 2 2 3 3 2 2 1 0 0 0 0 0 0 0 0 0 0 0 0 0 0 0 0 0
9 8 8 9 9 8 6 5 6 5 5 4 4 3 2 1 0 1 1 2 2 2 1 1 1 0 0 0 0 0 0 0 0 0 0 0 0 0 0 0 0 0 0
6 6 7 7 7 5 4 6 9 9 8 7 5 4 3 2 2 2 2 2 2 1 1 0 0 0 0 0 0 0 0 0 0 0 0 0 0 0 0 0 0 0 0
5 6 7 6 4 3 3 6 11 12 10 8 6 5 3 3 3 3 4 3 2 1 1 0 0 0 0 0 0 0 0 0 1 0 0 0 1 1 1 0 0 0 0
6 6 6 5 4 3 4 6 10 12 11 8 6 4 2 3 3 4 4 3 2 1 1 0 0 0 0 0 0 0 0 0 1 0 0 1 2 2 2 1 0 0 0

GEFSMW_con_probscp_144.txt.gz
Probability
19 15 9 8 11 12 13 13 12 12 11 10 10 10 7 4 3 3 3 2 1 0 0 1 1 1 2 4 4 3 4 7 7 5 4 4 5 6 6 6 6 8 12
18 13 7 6 8 10 11 11 11 10 9 8 7 7 4 2 2 3 2 1 0 0 0 0 0 1 2 3 3 2 3 4 6 5 3 3 4 5 6 7 7 9 12
16 10 5 4 4 5 6 8 8 7 5 4 3 2 1 1 1 1 1 0 0 0 1 0 0 0 1 1 1 1 1 2 4 4 3 2 2 3 5 6 8 9 10
13 9 4 3 3 3 3 4 5 4 2 1 0 0 0 0 0 0 0 0 0 0 0 0 0 0 0 0 0 1 1 1 2 3 3 2 1 1 2 4 5 6 6
9 6 4 3 3 3 3 2 1 1 0 0 0 0 0 0 0 0 0 0 0 0 0 0 0 0 0 0 0 1 2 1 1 1 1 2 2 1 1 2 3 3 4
6 4 3 3 3 3 2 1 0 0 0 0 0 0 0 0 0 0 0 0 0 0 0 0 0 0 0 0 0 0 1 1 0 0 0 1 2 3 2 2 3 3 3
7 5 4 4 3 1 1 0 0 0 0 0 0 0 0 0 0 0 0 0 0 0 0 0 0 0 0 0 0 0 0 0 0 0 0 1 2 3 3 3 3 3 2
7 6 5 5 2 1 1 1 1 1 0 0 0 0 0 0 0 0 0 0 0 0 0 0 0 0 0 0 0 0 0 0 0 0 0 0 1 2 3 3 3 1 1
7 5 5 4 2 1 2 1 2 2 1 0 0 0 0 0 0 0 0 0 0 0 0 0 0 0 0 0 0 0 0 0 0 0 0 0 1 1 2 3 2 1 0
5 5 6 6 4 2 2 3 3 3 2 1 0 0 0 0 0 0 0 0 0 0 0 0 0 0 0 0 0 0 0 0 0 0 0 0 0 0 1 2 2 1 0
4 6 8 9 7 4 5 7 6 5 3 1 0 0 0 0 0 0 0 0 0 0 0 0 0 0 0 0 0 0 0 0 0 0 0 0 0 0 0 1 1 0 0
5 8 11 12 10 8 9 11 11 8 4 1 0 0 0 0 0 0 0 0 0 0 0 0 0 0 0 0 0 0 0 0 0 0 0 0 0 0 0 0 0 0 0
8 12 17 19 17 15 15 15 14 11 7 2 0 0 0 0 0 0 0 0 0 0 0 1 1 1 0 0 0 0 0 0 0 0 0 0 0 0 0 0 0 0 0
13 18 27 31 28 26 24 21 18 15 10 6 4 2 2 1 0 0 0 1 1 1 1 2 2 2 1 0 0 0 0 0 0 0 0 0 0 0 0 0 0 0 0
16 24 37 43 42 39 33 28 26 22 16 12 9 7 5 3 1 1 1 2 2 2 3 3 3 2 1 0 0 0 0 0 0 0 0 0 0 0 0 0 0 0 0
21 30 43 51 53 49 41 35 34 30 22 15 12 9 7 5 3 3 3 3 3 3 3 3 3 3 1 0 0 0 0 0 0 0 0 0 0 0 0 0 0 0 0
29 38 47 53 55 52 46 40 37 33 24 16 12 9 7 7 7 6 5 5 5 4 4 4 4 4 3 1 0 0 0 0 0 0 0 0 0 0 0 0 0 0 0
38 44 49 51 51 49 47 42 38 32 23 15 11 8 7 8 9 9 9 10 9 7 6 6 6 6 4 1 0 0 0 0 0 0 0 0 0 0 0 0 0 0 0
47 49 49 50 52 52 50 45 38 29 20 13 9 7 7 9 11 12 12 13 12 11 9 8 7 8 6 2 0 0 0 0 0 0 0 0 0 0 0 0 0 0 0
56 55 54 55 59 60 57 50 39 28 17 11 10 10 11 12 13 14 14 14 13 12 10 9 10 10 8 3 0 0 0 1 1 0 0 0 0 0 0 0 0 0 0
59 59 60 63 67 68 64 56 44 33 21 13 13 15 15 14 14 16 17 15 13 12 11 11 12 12 9 4 1 0 0 1 1 0 0 0 0 0 0 0 0 0 0
55 57 63 71 75 74 69 61 52 42 30 22 21 21 17 13 14 17 18 15 12 12 12 12 12 11 8 4 1 0 0 1 1 0 0 0 0 0 0 0 0 0 0
55 56 64 76 80 76 69 63 57 51 42 34 32 27 19 14 13 14 15 13 11 11 11 11 11 11 9 5 2 0 0 0 0 0 0 0 0 0 0 0 0 0 0
58 60 66 75 79 74 67 62 60 58 52 44 37 29 19 14 13 13 13 11 9 9 9 9 8 8 8 6 2 0 0 1 1 0 0 0 0 0 0 1 1 1 1
59 62 67 72 72 69 63 60 61 61 55 45 34 23 15 11 12 12 11 8 6 5 6 5 4 4 4 4 2 0 0 1 1 0 0 0 0 0 1 2 3 3 4
60 63 66 68 67 64 61 60 61 61 55 43 29 18 10 8 10 10 8 5 3 2 2 2 1 1 1 1 1 0 0 1 1 0 0 0 0 0 1 2 4 5 6

GEFSMW_con_probscp_150.txt.gz
Probability
11 11 10 10 11 9 8 6 5 3 2 2 3 2 1 0 0 0 0 0 0 0 0 0 0 0 0 0 0 0 0 0 1 2 2 2 2 2 3 3 3 3 3
11 10 8 8 8 7 6 6 5 3 1 1 1 1 0 0 0 0 0 0 0 0 0 0 0 0 0 0 0 0 0 0 0 1 1 1 1 1 2 2 3 3 3
10 8 6 5 5 5 4 4 4 3 1 0 0 0 0 0 0 0 0 0 0 0 0 0 0 0 0 0 0 0 0 0 0 0 0 0 0 0 1 1 1 2 2
7 6 4 3 4 4 3 3 3 1 0 0 0 0 0 0 0 0 0 0 0 0 0 0 0 0 0 0 0 0 0 0 0 0 0 0 0 0 0 0 0 1 1
6 4 3 3 3 3 2 2 1 0 0 0 0 0 0 0 0 0 0 0 0 0 0 0 0 0 0 0 0 0 0 0 0 0 0 0 0 0 0 0 0 0 0
6 4 3 3 2 1 1 1 0 0 0 0 0 0 0 0 0 0 0 0 0 0 0 0 0 0 0 0 0 0 0 0 0 0 0 0 0 0 0 0 0 0 0
5 5 4 3 1 0 0 0 0 0 0 0 0 0 0 0 0 0 0 0 0 0 0 0 0 0 0 0 0 0 0 0 0 0 0 0 0 0 0 0 0 0 0
4 4 4 3 2 1 0 0 0 0 0 0 0 0 0 0 0 0 0 0 0 0 0 0 0 0 0 0 0 0 0 0 0 0 0 0 0 0 0 0 0 0 0
4 3 3 3 3 2 1 0 0 0 0 0 0 0 0 0 0 0 0 0 0 0 0 0 0 0 0 0 0 0 0 0 0 0 0 0 0 0 0 0 0 0 0
4 3 2 3 3 3 1 0 0 0 0 0 0 0 0 0 0 0 0 0 0 0 0 0 0 0 0 0 0 0 0 0 0 0 0 0 0 0 0 0 0 0 0
4 2 1 2 3 3 2 1 0 0 0 0 0 0 0 0 0 0 0 0 0 0 0 0 0 0 0 0 0 0 0 0 0 0 0 0 0 0 0 0 0 0 0
2 1 1 2 3 3 3 1 0 0 0 0 0 0 0 0 0 0 0 0 0 0 0 0 0 0 0 0 0 0 0 0 0 0 0 0 0 0 0 0 0 0 0
2 2 2 3 3 3 3 2 1 0 0 0 0 0 0 0 0 0 0 0 0 0 0 0 0 0 0 0 0 0 0 0 0 0 0 0 0 0 0 0 0 0 0
3 3 3 4 3 3 3 2 1 0 0 0 0 0 0 0 0 0 0 0 0 0 0 0 0 0 0 0 0 0 0 0 0 0 0 0 0 0 0 0 0 0 0
4 4 5 5 4 4 3 3 1 0 0 0 0 0 0 0 0 0 0 0 0 0 0 0 0 0 0 0 0 0 0 0 0 0 0 0 0 0 0 0 0 0 0
4 5 6 8 7 6 4 4 3 2 2 1 0 0 0 0 0 0 0 0 0 0 0 0 0 0 0 0 0 0 0 0 0 0 0 0 0 0 0 0 0 0 0
5 6 8 11 10 8 7 7 7 6 4 2 1 1 1 0 0 0 0 0 0 0 0 0 0 1 1 1 0 0 0 0 0 0 0 0 0 0 0 0 0 0 0
7 9 11 13 12 11 10 10 10 9 6 4 2 2 1 1 0 0 0 0 0 0 0 0 0 1 2 1 0 0 0 0 0 0 0 0 0 0 0 0 0 0 0
9 12 13 15 16 15 14 13 13 12 7 4 3 1 1 1 0 0 0 0 0 0 0 0 0 1 1 0 0 0 0 0 0 0 0 0 0 0 0 0 0 0 0
10 13 16 20 22 20 18 17 16 13 9 5 3 1 0 0 0 0 0 0 0 0 0 0 0 0 0 0 0 0 0 0 0 0 0 0 0 0 0 0 0 0 0
11 14 20 25 26 24 21 19 17 13 9 5 3 1 0 0 0 0 0 0 0 0 0 0 0 0 0 0 0 0 0 0 0 0 0 0 0 0 0 0 0 0 0
13 16 22 26 28 27 24 19 14 11 7 4 2 1 0 0 0 0 0 1 1 1 0 1 1 0 0 0 0 0 0 0 0 0 0 0 0 0 0 0 0 0 0
17 20 24 25 26 26 24 17 10 8 7 4 1 0 0 0 0 0 1 2 3 3 2 1 1 0 0 0 0 0 0 0 0 0 0 0 0 0 0 0 0 0 0
21 23 24 23 22 22 20 14 9 7 6 4 2 0 0 0 0 0 1 3 4 3 2 1 1 0 0 0 0 0 0 0 0 0 0 0 0 0 0 0 0 0 0
20 22 22 20 19 18 14 10 7 6 5 4 2 1 0 0 0 0 1 1 1 1 1 0 0 0 0 0 0 0 0 0 0 0 0 0 0 0 0 0 0 0 0
17 19 19 18 17 16 12 7 5 4 4 3 2 1 0 0 0 0 0 0 0 0 0 0 0 0 0 0 0 0 0 0 0 0 0 0 0 0 0 0 0 0 0

GEFSMW_con_probscp_156.txt.gz
Probability
8 8 8 7 6 4 3 3 4 4 4 3 2 2 1 0 1 1 1 1 1 0 0 0 0 0 0 0 0 0 0 0 0 0 0 0 0 0 0 0 0 1 1
9 9 7 7 6 5 4 3 4 4 4 3 1 2 2 1 0 0 0 0 0 0 0 0 0 0 0 0 0 0 0 0 0 0 0 0 0 0 0 0 0 0 1
8 8 7 6 6 6 4 3 3 3 3 1 1 2 2 1 0 0 0 0 0 0 0 0 0 0 0 0 0 0 0 0 0 0 0 0 0 0 0 0 0 0 0
8 7 7 6 6 5 4 3 2 1 1 0 1 2 2 1 0 0 0 0 0 0 0 0 0 0 0 0 0 0 0 0 0 0 0 0 0 0 0 0 0 0 0
9 8 7 5 4 3 3 3 2 1 0 0 0 1 1 1 0 0 0 0 0 0 0 0 0 0 0 0 0 0 0 0 0 0 0 0 0 0 0 0 0 0 0
10 9 6 4 3 3 3 3 2 1 0 0 0 0 0 0 0 0 0 0 0 0 0 1 0 0 0 0 0 0 0 0 0 0 0 0 0 0 0 0 0 0 0
9 8 5 3 3 3 3 3 2 1 0 0 0 0 0 0 0 0 0 0 0 0 0 0 0 0 0 0 0 0 0 0 0 0 0 0 0 0 0 0 0 0 0
8 7 5 3 3 3 2 1 1 0 0 0 0 0 0 0 0 0 0 0 0 0 0 0 0 0 0 0 0 0 0 0 0 0 0 0 0 0 0 0 0 0 0
6 6 4 3 3 3 1 0 0 0 0 0 0 0 0 0 0 0 0 0 0 0 0 0 0 0 0 0 0 0 0 0 0 0 0 0 0 0 0 0 0 0 0
5 4 3 3 3 2 1 0 0 0 0 0 0 0 0 0 0 0 0 0 0 0 0 0 0 0 0 0 0 0 0 0 0 0 0 0 0 0 0 0 0 0 0
3 3 3 3 2 1 0 0 0 0 0 0 0 0 0 0 0 0 0 0 0 0 0 0 0 0 0 0 0 0 0 0 0 0 0 0 0 0 0 0 0 0 0
1 2 3 3 1 0 0 0 0 0 0 0 0 0 0 0 0 0 0 0 0 0 0 0 0 0 0 0 0 0 0 0 0 0 0 0 0 0 0 0 0 0 0
1 1 2 1 0 0 0 0 0 0 0 0 0 0 0 0 0 0 0 0 0 0 0 0 0 0 0 0 0 0 0 0 0 0 0 0 0 0 0 0 0 0 0
0 1 1 0 0 0 0 0 0 0 0 0 0 0 0 0 0 0 0 0 0 0 0 0 0 0 0 0 0 0 0 0 0 0 0 0 0 0 0 0 0 0 0
0 0 0 0 0 0 0 0 0 0 0 0 0 0 0 0 0 0 0 0 0 0 0 0 0 0 0 0 0 0 0 0 0 0 0 0 0 0 0 0 0 0 0
0 0 0 0 0 0 0 0 0 0 0 0 0 0 0 0 0 0 0 0 0 0 0 0 0 0 0 0 0 0 0 0 0 0 0 0 0 0 0 0 0 0 0
0 0 0 0 0 1 2 1 0 0 0 0 0 0 0 0 0 0 0 0 0 0 0 0 0 0 0 0 0 0 0 0 0 0 0 0 0 0 0 0 0 0 0
0 0 0 0 1 2 3 2 1 0 0 0 0 0 0 0 0 0 0 0 0 0 0 0 0 0 0 0 0 0 0 0 0 0 0 0 0 0 0 0 0 0 0
0 0 0 0 1 2 3 2 1 0 0 0 0 0 0 0 0 0 0 0 0 0 0 0 0 0 0 0 0 0 0 0 0 0 0 0 0 0 0 0 0 0 0
1 1 1 0 1 2 3 3 1 0 0 0 0 1 2 1 1 0 0 0 0 0 0 0 0 0 0 0 0 0 0 0 0 0 0 0 0 0 0 0 0 0 0
2 2 2 1 1 2 3 3 2 1 1 1 1 2 3 2 1 0 0 0 0 0 0 0 0 0 0 0 0 0 0 0 0 0 0 0 0 0 0 0 0 0 0
2 2 2 1 1 2 3 3 2 2 3 2 2 2 3 3 2 0 0 0 0 0 0 0 0 0 0 0 0 0 0 0 0 0 0 0 0 0 0 0 0 0 0
1 1 1 0 0 1 3 4 3 2 3 3 2 2 2 2 1 0 0 0 0 0 0 0 0 0 0 0 0 0 0 0 0 0 0 0 0 0 0 0 0 0 0
0 0 0 0 0 0 2 3 3 3 3 3 3 2 2 1 1 0 0 1 1 1 0 0 0 0 0 0 0 0 0 0 0 0 0 0 0 0 0 0 0 0 0
0 0 0 0 0 0 0 1 2 3 3 3 3 3 2 1 0 0 0 1 2 1 0 0 0 0 0 0 0 0 0 0 0 0 0 0 0 0 0 0 0 0 0
0 0 0 0 0 0 0 1 2 3 3 3 3 3 1 0 0 0 0 1 1 1 0 0 0 0 0 0 0 0 0 0 0 0 0 0 0 0 0 0 0 0 0

GEFSMW_con_probscp_162.txt.gz
Probability
22 20 17 12 9 11 14 16 17 19 21 24 23 19 13 9 9 8 6 3 2 2 3 6 8 6 3 1 0 0 0 0 0 0 0 0 0 1 1 1 0 0 0
25 23 19 13 10 11 13 15 17 18 19 20 20 17 12 9 9 8 7 5 3 2 3 6 8 6 3 1 0 0 0 0 0 0 0 0 0 0 0 0 0 0 0
25 24 21 16 12 11 12 14 17 17 16 15 14 13 11 9 8 8 8 6 4 3 3 5 6 5 3 1 0 0 0 0 0 0 0 0 0 0 0 0 0 0 0
23 22 21 18 14 13 12 14 16 17 15 13 10 10 8 6 6 7 6 5 3 3 3 3 3 2 1 1 0 0 0 0 1 1 1 0 0 0 0 0 0 0 0
21 20 20 18 14 13 13 14 16 18 15 12 10 8 5 3 5 7 5 4 3 3 3 3 2 1 1 0 0 0 0 0 1 2 1 0 0 0 0 0 0 0 0
18 18 19 17 13 11 11 13 15 16 15 10 8 6 4 2 4 5 4 4 4 4 3 3 3 3 2 1 1 0 0 0 1 1 1 0 0 0 0 0 0 0 0
14 15 16 16 13 9 9 10 13 14 12 9 6 4 2 1 2 2 2 3 5 5 4 3 3 3 2 2 2 1 0 0 0 0 0 0 0 0 0 0 0 0 0
10 12 15 16 13 10 9 9 11 13 12 9 6 3 2 2 1 1 1 3 4 4 3 3 3 2 1 1 1 1 0 0 0 0 0 0 0 0 0 0 0 0 0
8 10 13 15 13 11 10 9 10 11 10 9 7 4 3 3 2 0 1 3 3 2 3 3 3 1 0 0 0 0 0 0 0 0 0 0 0 0 0 0 0 0 0
7 10 13 14 13 11 10 9 7 6 6 6 5 4 3 3 2 0 0 1 1 1 2 3 2 1 0 0 0 0 0 0 0 0 0 0 0 0 0 0 0 0 0
9 11 13 14 13 10 9 7 4 3 2 2 2 2 3 2 1 0 0 0 1 1 1 1 1 1 0 0 0 0 0 0 0 0 0 0 0 0 0 0 0 0 0
11 11 12 12 11 10 8 6 4 2 1 1 0 1 1 1 0 0 0 1 1 1 0 0 0 0 0 0 0 0 0 0 0 0 0 0 0 0 0 0 0 0 0
13 13 12 11 10 9 8 5 3 1 1 1 0 0 0 0 0 0 0 1 1 0 0 0 0 0 0 0 0 0 0 0 0 0 0 0 0 0 0 0 0 0 0
14 15 16 15 13 10 7 4 2 0 1 1 1 0 0 0 0 0 0 0 0 0 0 0 0 0 0 0 0 0 0 0 0 0 0 0 0 0 0 0 0 0 0
14 16 17 17 15 10 6 3 2 1 2 2 2 1 0 0 0 0 0 0 0 0 0 0 0 0 0 0 0 0 0 0 0 0 0 0 0 0 0 0 0 1 1
13 15 16 15 14 11 7 4 3 2 3 3 3 2 0 0 0 0 0 1 1 1 0 0 0 0 0 0 0 0 0 0 0 0 0 0 0 0 0 0 0 0 0
11 13 14 14 12 11 9 8 7 5 3 3 2 2 1 1 1 0 0 1 2 2 1 1 0 0 0 0 0 0 0 0 0 1 2 2 2 2 2 1 1 1 1
8 10 12 12 10 9 10 11 11 9 6 3 2 2 3 2 1 1 1 1 2 2 3 3 1 1 0 0 0 0 0 0 0 1 3 4 4 4 3 2 3 3 3
6 7 10 10 8 8 10 13 14 14 11 8 5 4 5 5 3 3 4 4 4 4 5 5 4 3 2 0 0 0 0 0 1 2 3 4 4 3 2 3 4 5 5
6 7 8 9 9 11 15 16 16 18 17 14 11 9 9 8 7 8 8 8 8 7 6 6 6 5 3 1 0 0 0 1 2 3 3 3 3 2 1 2 4 4 4
8 8 9 10 11 15 19 20 19 19 18 17 17 17 15 13 12 13 12 11 11 9 7 7 6 5 4 3 1 0 0 1 3 4 4 4 3 1 0 1 1 1 1
12 12 13 14 15 17 21 23 22 20 19 18 21 26 26 21 18 19 18 16 14 10 8 8 7 6 5 4 2 1 0 1 3 5 5 4 2 0 0 0 0 0 0
17 17 18 19 18 18 22 26 27 26 24 24 27 34 35 30 26 25 24 21 16 11 9 9 7 6 6 6 4 2 1 0 2 4 4 2 1 0 0 0 0 0 0
18 18 21 23 22 22 25 29 33 35 34 34 36 39 40 37 33 31 27 22 18 14 11 10 8 7 7 7 5 3 2 1 1 2 2 1 1 0 1 2 2 1 1
14 14 17 21 24 27 30 33 38 42 44 46 46 44 44 42 38 33 26 19 15 12 10 9 7 5 5 4 2 2 2 1 0 0 2 3 3 1 2 4 5 5 5
11 10 11 17 25 30 33 36 40 44 49 53 52 50 49 47 41 32 22 13 8 7 6 5 4 3 2 1 0 0 1 1 0 0 2 4 4 2 2 4 6 7 9

GEFSMW_con_probscp_168.txt.gz
Probability
42 41 42 42 42 43 42 41 39 37 34 37 42 45 43 39 34 28 21 16 11 7 6 7 9 9 8 6 3 2 1 1 0 0 0 0 0 0 1 2 2 1 0
44 43 44 44 43 43 42 40 39 36 35 36 40 42 42 39 33 27 19 14 11 8 7 8 9 8 6 4 3 3 2 2 1 0 0 0 0 0 0 1 1 0 1
46 46 44 43 42 42 41 39 39 38 37 37 36 36 36 34 31 25 18 14 12 11 10 9 8 7 5 4 4 4 4 3 1 0 0 0 0 0 0 0 0 1 2
47 46 42 40 39 39 37 37 38 38 38 38 34 30 28 28 28 23 17 14 12 12 11 10 8 7 6 5 4 5 5 4 2 1 0 0 0 0 0 0 0 1 2
43 44 42 40 38 35 32 33 35 35 35 36 34 29 25 25 24 19 15 14 13 11 11 9 8 7 6 4 3 4 5 4 2 1 0 0 0 0 0 0 0 0 1
41 43 44 42 38 33 30 31 33 32 30 32 32 29 25 23 20 16 13 12 12 11 9 8 8 7 5 2 1 2 3 2 1 0 0 0 0 0 0 0 0 0 0
42 45 46 43 38 33 30 31 32 30 27 29 30 28 25 20 16 14 12 11 10 9 9 9 8 7 4 1 1 2 2 1 0 0 0 0 0 0 0 0 0 0 0
43 46 47 42 36 31 30 30 30 28 28 29 28 26 22 16 13 13 12 10 8 7 9 9 8 7 4 2 2 1 1 1 0 0 0 0 0 0 0 0 0 0 0
41 43 45 41 34 31 29 28 27 27 27 26 25 22 18 13 11 11 10 9 8 8 9 9 8 7 4 3 2 1 0 0 0 0 0 0 0 0 0 0 0 0 0
35 37 39 37 33 29 27 25 24 24 24 22 21 18 14 12 12 9 7 7 7 7 8 7 6 6 4 3 2 1 0 0 0 0 0 0 1 0 0 0 0 0 0
28 31 32 31 29 26 24 21 20 20 20 19 19 17 14 12 11 8 5 5 5 5 5 5 5 5 4 3 2 1 0 0 0 0 0 0 0 0 0 0 0 0 0
25 28 29 28 27 24 21 18 17 17 17 17 17 16 15 12 9 7 6 5 4 4 4 4 4 4 3 2 2 1 0 0 0 0 0 0 0 0 0 0 0 0 0
28 32 33 31 28 25 22 18 16 15 15 15 15 15 14 12 9 7 6 6 5 4 4 4 3 3 1 1 1 0 0 0 0 0 0 0 0 0 1 1 1 1 1
32 36 38 35 32 28 24 19 15 13 14 14 13 13 13 12 9 6 6 6 5 3 3 3 2 1 0 0 0 0 0 0 0 0 0 0 0 0 1 2 2 3 3
31 37 41 39 36 33 28 22 18 16 15 14 12 11 10 9 6 5 4 5 4 2 1 2 1 0 0 0 0 0 0 0 1 1 1 1 1 0 1 1 2 3 3
29 37 43 43 40 35 30 26 25 24 22 17 13 10 7 6 4 3 4 5 5 3 2 1 0 0 0 0 0 0 1 1 2 2 2 2 2 1 1 1 1 1 1
32 40 45 46 43 38 33 30 31 30 26 20 15 10 7 5 4 4 5 6 6 5 4 2 1 0 0 0 0 0 1 2 3 3 3 3 3 2 2 2 1 1 2
39 43 47 47 44 39 36 34 33 31 26 20 15 10 8 7 7 7 9 11 10 8 7 6 3 2 1 0 0 0 1 2 2 2 2 2 2 2 2 2 3 4 4
44 46 48 47 45 44 42 38 33 28 23 19 17 13 12 13 14 15 17 18 17 14 12 11 9 7 4 1 0 0 0 1 1 1 1 1 1 1 1 2 4 5 6
48 49 52 52 52 55 54 43 33 27 23 21 22 22 24 26 26 27 27 25 22 18 15 15 15 13 8 4 1 0 0 0 0 1 1 1 0 0 0 1 4 5 5
44 48 55 57 58 65 64 51 40 34 31 29 31 35 37 37 36 37 37 31 25 22 19 18 19 17 12 6 1 0 0 1 1 2 3 2 1 0 0 1 2 2 2
37 44 54 59 61 65 65 58 49 44 41 40 42 44 44 41 40 42 42 37 30 24 20 18 18 18 15 8 3 1 0 1 2 3 3 2 1 0 0 0 0 0 0
36 42 50 57 59 59 59 58 52 47 45 46 47 48 45 43 43 45 44 40 34 25 19 18 18 19 18 14 6 2 0 0 1 1 1 1 0 0 0 0 0 0 0
39 42 47 52 54 54 54 53 51 48 45 45 47 48 47 46 48 48 44 39 34 28 24 23 20 18 19 16 9 3 1 0 0 0 0 0 0 0 0 0 0 0 0
40 41 43 45 47 48 49 50 52 51 46 45 46 48 49 48 49 48 41 33 28 25 23 22 17 14 13 10 7 3 1 0 0 0 2 2 1 0 1 1 1 1 1
40 41 40 38 40 42 45 50 53 53 47 44 45 47 49 50 49 45 37 26 20 16 14 13 11 9 6 4 3 2 1 0 0 1 3 4 2 1 2 3 2 2 2

GEFSMW_con_probscp_174.txt.gz
Probability
37 41 42 40 37 32 27 22 16 13 12 10 9 10 9 8 6 4 1 1 1 1 0 0 0 0 0 0 0 0 0 0 0 0 0 0 0 0 0 0 0 0 0
38 41 43 41 36 31 27 23 19 16 14 11 8 7 6 5 4 3 2 1 1 0 0 0 0 0 0 0 0 0 0 0 0 0 0 0 0 0 0 0 0 0 0
36 39 42 41 35 28 25 23 22 20 17 13 8 5 4 2 1 1 2 2 1 0 0 0 0 0 0 0 0 0 0 0 0 0 0 0 0 0 0 0 0 0 0
34 37 41 40 34 28 24 23 23 22 19 14 9 5 3 2 1 0 1 1 1 0 0 1 1 0 0 0 0 0 0 0 0 0 0 0 0 0 0 0 0 0 0
31 34 37 36 34 31 27 25 23 22 20 15 9 4 2 1 0 0 0 0 0 0 0 1 2 1 0 0 0 0 0 0 0 0 0 0 0 0 0 0 0 0 0
26 28 32 33 33 33 31 26 22 21 20 15 8 4 1 0 1 1 0 0 0 0 0 1 2 2 1 0 0 0 0 0 0 0 0 0 0 0 0 0 0 0 0
21 25 30 32 32 32 29 25 21 19 19 15 8 4 2 1 2 2 1 0 0 0 0 0 1 1 0 0 0 0 0 0 0 0 0 0 0 0 0 0 0 0 0
19 25 30 31 30 29 26 22 18 17 17 14 9 6 4 2 3 3 1 0 0 0 0 0 0 0 0 0 0 0 0 0 0 0 0 0 0 0 0 0 0 0 0
20 25 29 29 28 27 24 21 17 16 16 15 12 8 6 4 3 2 2 1 0 0 0 0 0 0 0 0 0 0 0 0 0 0 0 0 0 0 0 0 0 0 0
18 23 26 25 25 24 23 21 17 16 16 17 15 11 7 5 2 1 1 1 1 1 1 1 1 0 0 0 0 0 0 0 0 0 0 0 0 0 0 0 0 0 0
13 19 21 21 22 22 21 21 18 16 16 16 15 11 8 6 3 1 0 0 1 1 2 2 1 0 0 0 0 0 0 0 0 0 0 0 0 0 0 0 0 0 0
11 13 15 16 19 20 20 20 19 17 16 16 13 10 8 6 4 2 1 0 0 1 2 1 0 0 0 0 0 0 0 0 0 0 0 0 0 0 0 0 0 0 0
10 10 11 14 16 17 18 18 17 16 16 15 12 9 8 6 5 3 2 0 0 0 0 0 0 0 0 0 0 0 0 0 0 0 0 0 0 0 0 0 0 0 0
10 10 11 13 16 16 16 16 15 13 13 13 12 9 8 6 5 3 1 0 0 0 0 0 0 0 0 0 0 0 0 0 0 0 0 0 0 0 0 0 0 0 0
10 10 11 14 16 16 15 14 13 10 10 11 11 9 8 6 5 2 1 0 0 0 0 0 0 0 0 0 0 0 0 0 0 0 0 0 0 0 0 0 0 0 0
8 9 11 14 16 15 14 13 12 10 9 10 10 9 8 7 4 1 0 0 0 0 0 0 0 0 0 0 0 0 0 0 0 0 0 0 0 0 0 0 0 0 0
6 8 10 13 15 15 15 14 12 10 9 10 10 9 9 7 4 1 0 0 0 0 0 0 0 0 0 0 0 0 0 0 0 0 0 0 0 0 0 0 0 0 0
6 8 10 12 13 14 14 12 10 8 9 9 9 8 7 5 4 3 2 1 1 1 0 0 0 0 0 0 0 0 0 0 0 0 0 0 0 0 0 0 0 0 0
5 7 9 11 11 10 9 9 7 6 7 8 8 7 6 4 4 5 4 3 2 2 1 0 0 0 0 0 0 0 0 0 0 0 0 0 0 0 0 0 0 0 0
5 6 8 9 9 8 7 7 6 5 5 6 6 6 5 4 4 4 4 3 3 3 2 1 0 0 0 0 0 0 0 0 0 0 0 0 0 0 0 0 0 0 0
7 8 8 9 8 8 7 6 5 4 4 3 3 4 4 4 3 3 3 3 3 3 2 1 0 0 0 0 0 0 0 0 0 0 0 0 0 0 0 0 0 0 0
11 12 12 10 8 9 10 9 6 5 5 5 3 2 2 2 3 3 4 4 3 3 3 3 2 1 1 1 0 0 0 0 0 0 0 0 0 0 0 0 0 0 0
13 13 13 11 9 10 13 12 8 6 8 8 6 3 2 2 2 3 5 6 6 5 5 5 5 4 3 3 1 1 0 0 0 0 0 0 0 0 0 0 0 0 0
10 11 12 12 10 10 12 12 8 7 9 10 10 8 6 4 5 6 7 8 8 8 8 7 6 6 5 4 3 2 1 0 0 0 0 0 0 0 0 0 0 0 0
6 8 11 12 10 10 11 10 8 8 10 12 12 12 10 9 8 9 8 7 6 7 7 5 5 5 5 4 3 2 1 0 0 0 0 0 0 0 0 0 0 0 0
4 6 9 11 9 10 10 8 7 8 10 13 14 13 12 11 10 10 9 6 4 4 3 3 3 4 4 3 2 1 0 0 0 0 0 0 0 0 0 0 0 0 0

GEFSMW_con_probscp_180.txt.gz
Probability
14 18 26 28 23 16 12 8 5 2 2 2 2 1 0 0 0 0 0 0 0 0 0 0 0 0 0 0 0 0 0 0 0 0 0 0 0 0 0 0 0 0 0
15 18 24 27 24 20 15 11 7 5 4 3 3 2 1 0 0 0 0 0 0 0 0 0 0 0 0 0 0 0 0 0 0 0 0 0 0 0 0 0 0 0 0
15 17 22 26 26 24 21 15 10 10 9 6 4 2 1 0 0 0 0 0 0 0 0 0 0 0 0 0 0 0 0 0 0 0 0 0 0 0 0 0 0 0 0
12 16 22 28 29 28 25 19 14 13 13 9 5 3 1 0 0 0 0 0 0 0 0 0 0 0 0 0 0 0 0 0 0 0 0 0 0 0 0 0 0 0 0
11 16 22 27 30 29 27 21 16 15 14 12 8 5 2 1 0 0 0 0 0 0 0 0 0 0 0 0 0 0 0 0 0 0 0 0 0 0 0 0 0 0 0
11 16 22 24 27 29 26 22 18 15 13 12 10 6 3 1 1 1 0 0 0 0 0 0 0 0 0 0 0 0 0 0 0 0 0 0 0 0 0 0 0 0 0
12 16 20 22 24 26 24 20 18 16 14 12 10 6 3 2 2 2 1 0 0 0 0 0 0 0 0 0 0 0 0 0 0 0 0 0 0 0 0 0 0 0 0
11 14 17 18 20 22 21 18 16 15 14 13 10 5 3 4 3 3 2 1 1 0 0 0 0 0 0 0 0 0 0 0 0 0 0 0 0 0 0 0 0 0 0
8 10 13 15 16 18 19 18 17 15 14 13 11 6 4 4 4 3 3 3 2 1 1 0 0 0 0 0 0 0 0 0 0 0 0 0 0 0 0 0 0 0 0
6 7 10 12 14 16 17 17 17 15 13 12 10 7 5 4 4 3 3 3 3 3 2 1 0 0 0 0 0 0 0 0 0 0 0 0 0 0 0 0 0 0 0
3 4 7 9 12 15 17 17 16 14 12 11 9 7 6 6 5 4 3 3 3 3 3 1 0 0 0 0 0 0 0 0 0 0 0 0 0 0 0 0 0 0 0
2 2 4 6 10 14 17 18 17 15 14 12 10 7 6 6 6 5 4 4 3 3 3 2 1 0 0 0 0 0 0 0 0 0 0 0 0 0 0 0 0 0 0
2 2 3 5 7 10 15 18 17 15 14 13 10 8 7 6 6 6 5 4 3 3 3 2 1 0 0 0 0 0 0 0 0 0 0 0 0 0 0 0 0 0 0
1 2 3 5 6 8 11 14 14 13 12 11 10 8 7 7 6 6 5 4 3 2 1 1 1 0 0 0 0 0 0 0 0 0 0 0 0 0 0 0 0 0 0
0 1 1 3 6 9 10 11 11 10 9 9 9 8 7 6 6 6 5 4 3 2 1 0 0 0 0 0 0 0 0 0 0 0 0 0 0 0 0 0 0 0 0
0 0 0 2 5 9 11 11 9 8 7 7 7 7 6 5 5 4 4 3 3 2 1 0 0 0 0 0 0 0 0 0 0 0 0 0 0 0 0 0 0 0 0
0 0 0 1 3 8 11 11 9 6 5 5 5 6 6 5 4 4 4 3 3 2 1 0 0 0 0 0 0 0 0 0 0 0 0 0 0 0 0 0 0 0 0
0 0 0 0 2 5 9 10 8 6 4 3 3 4 6 6 5 4 3 3 2 1 0 0 0 0 0 0 0 0 0 0 0 0 0 0 0 0 0 0 0 0 0
0 0 0 0 1 3 7 9 8 5 3 3 3 5 6 7 6 4 3 2 1 0 0 0 0 0 0 0 0 0 0 0 0 0 0 0 0 0 0 0 0 0 0
1 1 2 1 1 2 6 8 7 4 3 3 4 6 7 7 6 4 2 1 1 1 1 1 0 0 0 0 0 0 0 0 0 0 0 0 0 0 0 0 0 0 0
2 2 3 3 2 3 6 7 6 4 3 3 4 5 5 4 4 3 2 2 2 2 2 2 1 1 0 0 0 0 0 0 0 0 0 0 0 0 0 0 0 0 0
2 2 2 3 3 4 5 6 5 4 3 3 2 2 1 1 1 1 3 3 3 3 3 3 3 2 1 1 0 0 0 0 0 0 0 0 0 0 0 0 0 0 0
1 1 1 1 1 2 3 4 4 3 3 2 1 0 0 0 0 1 2 3 3 3 3 3 3 3 3 2 1 0 0 0 0 0 0 0 0 0 0 0 0 0 0
1 1 0 0 0 1 2 3 3 3 2 1 0 0 0 0 0 0 1 1 2 3 3 3 3 3 3 2 1 0 0 0 0 0 0 0 0 0 0 0 0 0 0
1 0 0 0 1 1 2 2 2 2 1 0 0 0 0 0 0 0 0 0 1 2 2 2 2 2 2 1 1 0 0 0 0 0 0 0 0 0 0 0 0 0 0
0 0 0 1 3 2 1 1 1 1 0 0 0 0 0 0 0 0 0 0 0 1 1 1 1 1 1 0 0 0 0 0 0 0 0 0 0 0 0 0 0 0 0